sat.trackr.live / text

‹ back to catalog

KUIPER-00476

NORAD 68874 · 2026-095L

PAYLOAD ACTIVE UNKNOWN

§ Identity

Operator
Country
US
Launch date
2026-04-28
Launch site
AFETR
Launch vehicle
Mass (kg)
RCS (m²)

External: N2YO · Heavens-Above · Gunter

§ Orbital elements

Epoch: 2026-05-24T23:11:31.197120Z

Period
93.74 min
Inclination
51.8752°
Eccentricity
0.0008166
Mean motion
15.36096966 rev/d
Perigee alt
452.1 km
Apogee alt
463.2 km
Semi-major
6,835.8 km
B*
3.9869e-4
RAAN
354.8912°
Arg perigee
214.4237°
Mean anomaly
145.6221°
Rev number
415

§ Raw data

KUIPER-004761 68874U 26095L   26144.96633330  .00013886  00000+0  39869-3 0  99982 68874  51.8752 354.8912 0008166 214.4237 145.6221 15.36096966  4151

JSON: /api/v1/satellites/68874 · /tle

For live sub-satellite position, see the globe view (requires WebGL).

§ Visibility from observer

Set your observer location to see the next 7 days of passes ≥ 10°. The values pass through the URL so the page stays shareable.

No JS? Fill the form by hand. The geolocation button needs JavaScript.